Volver al catálogo

FENGYUN 1C DEB

ActivoPO
NORAD 36996·DEBRIS·🇨🇳 China

Lanzado May 10, 1999 desde Taiyuan Satellite Launch Center

Loading…

Próximos Pases (próximas 24 horas)

TLE

EnvejeciendoSource: Space-Track

Época: Sep 6, 2026, 16:12 UTC

1 36996U 99025ECC 26249.67567427  .00000879  00000-0  36943-3 0  9997
2 36996  98.2544  25.7562 0249464 295.7149  73.3467 14.12882639634748

Sigue FENGYUN 1C DEB en tiempo real con AllMySat

Download on the App Store